Probability
31 28 22 16 11 4 1 0 0 0 0 0 0 2 5 7 9 12 18 26 31 33 34 33 32 29 22 14 7 4 1 0 0 0 0 0 0 0 0 0 0 0 0 0 0 0 0 0 0
33 30 22 14 8 3 1 0 0 0 0 0 2 7 14 19 23 27 30 33 39 39 36 34 33 29 22 14 7 4 2 1 0 0 0 0 0 0 0 0 0 0 0 0 0 0 0 0 0
35 29 19 10 5 1 0 0 0 0 0 2 9 20 29 34 39 41 40 43 48 45 39 36 35 29 23 15 7 3 2 1 0 0 0 0 0 0 0 0 0 0 0 0 0 0 0 0 0
30 23 12 5 3 1 0 0 0 0 0 6 21 37 46 48 48 47 47 49 52 47 41 39 36 30 23 15 7 3 2 1 0 0 0 0 0 0 0 0 0 0 0 0 0 0 0 0 0
20 13 6 2 1 0 0 0 0 0 1 11 30 50 61 62 59 56 52 52 52 47 41 39 37 30 23 14 7 3 2 1 0 0 0 0 0 0 0 0 0 0 0 0 0 0 0 0 0
11 7 2 0 0 0 0 0 0 1 2 12 34 57 69 70 67 61 53 51 52 48 42 39 36 29 21 14 7 4 2 1 0 0 0 0 0 0 0 0 0 0 0 0 0 0 0 0 0
4 3 1 0 0 0 0 0 0 2 5 15 36 59 71 72 69 62 54 52 51 49 45 40 34 26 19 13 8 4 2 1 0 0 0 0 0 0 0 0 0 0 0 0 0 0 0 0 0
1 1 0 0 0 0 0 0 1 5 13 27 44 61 72 74 72 68 62 56 53 50 46 40 32 23 17 12 7 4 2 1 0 0 0 0 0 0 0 0 0 0 0 0 0 0 0 0 0
0 0 0 0 0 0 0 0 2 9 24 44 58 68 75 80 80 76 70 63 54 47 42 36 29 21 15 10 5 2 1 0 0 0 0 0 0 0 0 0 0 0 0 0 0 0 0 0 0
0 0 0 0 0 0 0 0 2 10 26 47 63 72 78 83 84 80 74 66 55 44 37 31 25 19 15 10 5 1 0 0 0 0 0 0 0 0 0 0 0 0 0 0 0 0 0 0 0
0 0 0 0 0 0 0 0 1 7 18 32 50 65 73 78 81 79 75 68 56 44 35 29 24 20 16 11 6 2 0 0 0 0 0 0 0 0 0 0 0 0 0 0 0 0 0 0 0
0 0 0 0 0 0 0 0 1 4 10 19 33 49 60 67 71 73 73 69 60 48 39 33 27 23 18 12 6 2 0 0 0 0 0 0 0 0 0 0 0 0 0 0 0 0 0 0 0
0 0 0 0 0 0 0 0 1 4 10 17 26 36 44 50 57 64 67 66 61 53 43 37 33 27 21 13 5 1 0 0 0 0 0 0 0 0 0 0 0 0 0 0 0 0 0 0 0
0 0 0 0 0 0 0 0 1 4 10 16 21 26 30 36 44 52 58 59 58 53 46 41 38 32 24 14 6 1 0 0 0 0 0 0 0 0 0 0 0 0 0 0 0 0 0 0 0
0 0 0 0 0 0 0 0 1 3 7 11 14 17 20 25 32 40 46 49 51 50 46 44 42 35 25 16 8 3 1 1 0 0 0 0 0 0 0 0 0 0 0 0 0 0 0 0 0
0 0 0 0 0 0 0 0 0 1 3 6 9 12 14 17 22 27 32 37 42 45 46 48 48 41 31 23 14 6 2 0 0 0 0 0 0 0 0 0 0 0 0 0 0 0 0 0 0
0 0 0 0 0 0 0 0 0 0 1 3 5 8 10 12 15 19 22 27 33 39 44 49 53 48 41 34 24 12 3 0 0 0 0 0 0 0 0 0 0 0 0 0 0 0 0 0 0
0 0 0 0 0 0 0 0 0 0 0 1 2 5 7 9 11 13 17 21 27 33 39 45 51 51 48 43 33 19 7 1 0 0 0 0 0 0 0 0 0 0 0 0 0 0 0 0 0
0 0 0 0 0 0 0 0 0 0 0 0 1 2 6 8 8 10 14 19 24 29 34 39 46 51 50 47 39 25 12 4 1 0 0 0 0 0 0 0 0 0 0 0 0 0 0 0 0
0 0 0 0 0 0 0 0 0 0 0 0 0 1 4 6 6 7 10 15 20 25 31 37 44 48 50 48 41 28 16 9 5 2 2 1 0 0 0 0 0 0 0 0 0 0 0 0 0
0 0 0 0 0 0 0 0 0 0 0 0 0 0 1 3 4 5 7 10 14 20 27 35 42 47 49 48 42 31 22 16 11 7 5 2 0 0 0 0 0 0 0 0 0 0 0 0 0
0 0 0 0 0 0 0 0 0 0 0 0 0 0 1 2 4 5 7 9 11 14 21 30 39 45 48 48 44 36 29 24 18 12 7 4 2 1 2 1 1 1 0 0 0 0 0 0 0
0 0 0 0 0 0 0 0 0 0 0 0 0 0 1 3 3 4 6 8 8 10 15 23 32 40 45 46 43 37 30 26 20 14 10 8 5 4 4 3 3 3 1 1 1 0 0 0 0
0 0 0 0 0 0 0 0 0 0 0 0 0 0 2 3 3 4 4 4 5 7 10 16 24 31 36 39 38 32 27 23 19 15 13 11 9 7 6 6 6 5 3 2 2 1 0 0 0
0 0 0 0 0 0 0 0 0 0 0 0 0 0 1 2 3 4 3 2 3 5 8 12 17 22 27 30 32 30 26 23 20 16 14 14 12 10 7 6 5 5 4 3 2 1 0 0 0
0 0 0 0 0 0 0 0 0 0 0 0 0 0 0 1 2 3 1 0 2 4 7 10 12 15 18 22 24 25 25 24 22 17 14 14 13 10 7 4 3 3 2 1 1 0 0 0 0
0 0 0 0 0 0 0 0 0 0 0 0 0 0 0 0 1 2 1 0 0 2 4 7 7 7 10 13 15 17 20 22 20 16 12 11 10 9 6 3 1 1 1 0 0 0 0 0 0
0 0 0 0 0 0 0 0 0 0 0 0 0 0 0 0 1 1 0 0 0 0 1 3 3 2 4 6 8 10 13 14 14 12 9 7 6 5 3 1 0 0 0 0 0 0 0 0 0
0 0 0 0 0 0 0 0 0 0 0 0 0 0 0 0 0 0 0 0 0 0 0 1 1 0 1 3 5 7 8 8 8 7 6 4 3 2 1 0 0 0 0 0 0 0 0 0 0
0 0 0 0 0 0 0 0 0 0 0 0 0 0 0 0 0 0 0 0 0 0 0 0 0 0 1 2 4 5 5 5 4 4 3 2 1 0 0 0 0 0 0 0 0 0 0 0 0
Wind_Speed
7 3 1 2 3 2 7 7 5 4 4 3 2 4 6 5 5 4 5 13 17 17 16 18 20 19 19 18 18 17 16 15 15 15 15 15 16 16 16 17 17 17 17 18 18 17 17 16 16
2 1 1 2 5 6 8 7 7 6 5 2 1 3 5 3 3 7 8 15 19 17 15 16 20 20 19 19 18 17 16 16 15 15 15 16 16 17 17 17 17 17 17 17 17 16 15 15 14
2 1 2 3 6 9 8 7 9 6 4 2 2 2 4 4 5 5 10 19 18 15 13 16 20 20 19 19 18 17 16 16 15 16 16 16 16 17 17 17 17 17 16 16 16 15 14 13 13
0 1 1 4 10 10 7 4 4 5 3 1 4 3 2 1 3 9 18 19 18 14 12 16 20 20 19 18 18 17 17 16 16 16 16 16 17 17 17 17 17 16 15 15 15 14 13 12 12
1 2 4 6 10 7 7 5 3 5 3 2 4 5 1 4 9 18 18 18 18 14 13 16 19 20 19 19 18 17 17 17 16 16 16 16 17 17 17 17 16 15 15 14 14 12 11 11 12
2 2 5 10 10 7 6 6 4 5 4 2 4 5 2 3 14 17 16 15 16 15 13 14 18 18 18 18 17 17 16 16 16 16 16 16 16 16 16 16 15 15 14 13 12 11 10 10 11
3 4 6 7 8 7 8 5 5 4 4 3 5 6 4 4 10 14 15 14 14 14 12 11 12 14 16 16 16 16 15 15 16 16 16 15 14 15 15 14 14 14 13 12 11 10 9 8 9
2 2 5 5 6 6 5 3 2 2 4 1 4 8 8 8 10 14 15 13 13 12 11 10 10 10 10 10 14 14 14 14 14 14 13 12 12 12 13 11 12 12 12 11 9 8 7 6 6
2 2 5 6 5 3 2 1 2 2 0 1 1 3 7 13 14 16 15 13 13 13 11 11 10 10 9 9 12 12 12 13 13 12 13 11 6 6 7 9 10 11 10 9 8 7 5 4 3
3 4 4 1 1 1 3 2 3 2 2 2 2 3 7 11 15 18 18 18 17 16 13 11 11 10 9 9 7 6 7 8 7 7 8 5 5 5 6 9 9 9 9 8 7 5 3 2 1
3 4 2 3 3 2 3 5 3 1 1 0 4 7 7 9 12 15 16 17 17 16 14 12 11 10 9 6 6 4 4 5 6 7 7 5 4 4 4 3 4 5 5 3 3 2 1 1 1
2 2 3 3 3 2 3 3 2 1 2 4 2 6 7 9 11 13 14 14 14 15 14 13 12 11 9 8 7 6 5 5 5 6 7 6 4 4 4 3 3 3 2 3 2 1 2 2 2
3 2 1 3 2 2 2 2 2 4 3 3 3 1 5 7 7 7 10 11 13 14 15 14 13 12 10 9 7 7 6 6 6 6 7 7 6 5 5 3 3 4 3 3 3 3 3 3 3
2 1 1 1 1 1 2 4 1 4 1 2 2 2 3 6 7 6 8 10 11 12 13 13 14 12 11 9 8 7 7 6 6 6 7 8 6 6 6 5 4 4 4 4 4 4 3 3 3
2 2 2 1 1 1 0 3 5 5 1 2 3 4 4 4 5 7 9 10 11 11 11 13 14 13 12 10 9 7 6 7 6 6 8 8 7 7 6 5 5 4 4 4 3 3 2 2 2
2 3 1 1 2 2 3 5 6 3 2 3 4 4 4 4 5 6 7 7 8 9 10 11 12 13 12 10 9 6 6 7 6 6 7 8 8 8 6 5 5 5 4 3 3 3 2 2 2
2 2 2 1 3 3 4 4 4 2 4 5 5 6 6 5 5 5 6 7 8 9 10 10 10 12 11 9 7 7 6 7 6 6 6 7 8 8 6 5 5 5 4 3 3 2 2 2 2
3 3 2 2 2 4 4 4 4 3 4 6 5 5 6 6 7 6 6 6 7 8 8 10 10 10 9 7 5 4 5 5 5 6 6 7 6 7 6 4 5 5 4 3 3 3 2 2 2
2 4 2 1 1 3 4 5 6 4 4 6 6 6 7 8 6 5 6 6 6 7 8 9 10 10 9 6 6 5 5 4 4 4 6 7 7 7 6 5 5 4 4 4 4 3 3 2 1
3 4 2 1 1 1 1 5 6 5 6 8 8 8 8 6 5 5 5 5 7 8 8 9 10 10 9 7 6 4 5 3 4 3 4 6 7 7 6 6 5 5 4 4 4 3 2 2 2
3 2 2 2 2 3 1 4 5 5 5 6 6 7 7 8 8 7 7 7 6 8 9 9 10 9 9 8 5 4 3 2 2 4 4 4 6 6 6 6 5 5 5 5 5 5 5 3 3
1 1 2 4 3 1 1 2 5 4 6 7 8 8 8 8 9 8 7 6 6 7 7 8 8 8 8 8 8 9 7 6 6 5 4 4 5 5 5 6 5 5 4 4 4 4 3 4 3
2 1 2 3 3 1 0 1 6 3 6 9 10 10 10 9 8 8 7 6 5 5 5 5 6 7 7 8 9 8 6 5 4 4 5 5 4 5 5 5 5 5 4 4 4 4 4 4 4
2 4 5 4 3 0 3 3 6 5 8 7 7 7 7 7 6 5 4 4 4 3 4 5 5 5 5 7 8 8 8 7 6 5 5 4 3 3 4 4 4 4 4 4 4 4 4 4 4
3 5 3 3 1 4 3 3 8 7 7 8 8 6 5 4 4 4 4 4 4 4 4 4 6 5 5 6 6 7 7 8 8 7 6 5 4 3 4 4 3 3 3 3 3 3 4 4 4
1 4 5 3 3 2 1 5 8 7 5 5 4 3 2 2 3 3 3 4 4 5 5 5 5 4 4 5 6 5 6 5 4 5 5 5 4 3 3 4 3 3 3 3 3 3 3 3 3
3 1 3 3 0 1 3 5 7 4 4 2 1 1 0 1 0 1 1 2 3 4 4 5 6 5 4 4 4 4 4 4 4 4 4 3 3 3 4 4 3 3 2 2 2 2 2 2 2
2 2 3 3 1 1 3 3 3 5 4 4 2 2 2 1 1 0 0 1 1 1 2 2 3 4 3 3 3 3 4 4 4 5 5 4 4 3 4 3 3 2 2 2 2 1 1 2 1
2 1 2 2 2 2 2 5 3 3 3 3 3 2 1 1 1 1 1 0 1 1 2 2 3 3 3 3 3 4 4 4 5 4 5 5 4 4 4 4 3 3 2 2 2 1 1 2 1
3 3 3 2 2 2 1 5 4 2 2 2 2 3 3 2 1 1 0 0 1 1 1 2 2 3 3 3 4 4 4 5 5 5 4 5 5 4 4 4 3 3 2 2 2 2 1 2 2
Wind_Direction
293 313 90 89 109 158 220 227 226 214 215 225 187 133 137 145 163 171 126 136 136 145 148 147 145 142 139 136 132 128 126 124 122 119 119 118 116 115 114 115 114 112 109 108 106 105 103 101 100
301 296 112 126 168 195 224 222 223 221 208 183 117 109 102 96 94 111 126 142 140 144 146 147 145 142 140 138 135 132 129 127 123 121 119 117 118 117 115 113 112 111 110 108 106 106 104 101 97
295 230 177 161 190 201 213 208 220 240 244 197 94 64 111 128 124 130 144 143 139 142 144 147 145 144 142 140 138 135 131 128 125 122 119 118 118 117 115 113 111 110 109 109 109 108 105 98 93
60 123 181 197 213 215 216 200 188 230 263 207 126 81 53 72 152 136 139 141 138 138 142 147 145 145 144 142 140 137 134 132 129 125 122 121 119 116 115 114 112 112 112 112 112 110 104 95 91
100 166 195 221 225 230 231 244 205 211 218 160 128 118 61 344 117 130 139 141 139 139 143 148 146 146 146 144 142 140 137 136 134 130 127 124 122 120 119 118 118 117 116 115 114 111 104 95 93
179 177 192 212 226 235 241 239 238 235 226 157 122 123 132 113 128 137 140 141 140 142 145 149 147 147 147 146 144 142 140 139 138 135 132 129 127 126 125 124 123 122 121 120 118 115 107 97 95
191 183 199 208 221 236 237 221 216 228 237 193 140 125 139 140 139 139 139 138 140 142 145 148 148 148 147 146 145 144 142 141 140 138 135 131 131 131 130 129 128 127 125 124 123 122 114 103 97
180 188 197 201 208 234 244 219 212 218 241 184 130 145 163 168 145 137 136 138 142 145 147 148 148 147 146 146 146 144 143 141 140 137 134 132 132 133 131 129 130 129 130 130 131 130 122 107 96
134 205 207 199 198 237 284 272 301 316 234 42 64 164 163 145 141 138 139 142 151 154 154 153 151 149 148 149 150 145 143 141 138 138 137 133 128 127 129 134 134 136 138 141 142 141 131 108 84
162 206 227 244 211 288 339 347 324 6 355 40 57 66 121 138 146 151 154 157 162 164 163 160 157 154 153 156 148 145 144 143 141 143 141 135 134 137 139 141 143 143 146 150 155 156 143 106 58
188 204 232 296 333 345 350 342 333 56 38 260 150 152 142 146 152 159 161 162 166 166 166 166 162 159 158 151 152 148 145 148 148 152 150 144 139 139 138 140 143 143 147 150 159 153 168 193 215
216 254 237 271 317 346 342 326 337 279 235 294 260 165 152 159 161 164 163 163 164 167 169 168 166 164 162 156 160 158 157 158 161 166 160 154 152 152 156 156 158 159 160 166 172 184 218 240 246
214 253 277 287 294 300 318 293 298 274 303 339 327 187 170 169 170 168 164 162 164 171 171 171 169 168 165 161 166 167 169 170 170 171 173 168 165 167 166 170 173 177 176 179 185 198 217 238 246
187 178 321 260 245 245 278 280 299 270 318 343 312 255 211 183 176 173 169 170 170 172 173 172 172 171 167 168 172 172 175 173 171 175 179 175 171 171 172 175 181 187 189 190 191 201 214 222 218
141 105 26 324 137 177 272 273 240 259 280 272 262 271 257 215 184 184 182 177 174 171 171 173 173 172 171 172 176 174 176 174 175 177 179 177 174 173 175 176 184 193 193 193 194 206 206 216 215
101 107 115 259 164 161 147 243 252 251 198 238 259 269 270 239 211 201 192 181 175 170 173 175 175 173 175 174 176 172 174 174 176 174 174 176 174 173 172 176 187 189 184 183 187 190 189 206 207
77 135 156 219 186 152 172 235 262 225 204 231 249 260 263 249 230 216 201 185 177 174 178 178 176 174 176 171 171 170 171 175 174 170 172 178 176 172 170 176 183 177 175 180 185 184 180 197 217
164 146 150 187 176 156 200 238 257 223 206 233 246 257 256 248 235 220 205 188 178 174 178 181 176 177 173 166 161 159 164 174 173 172 175 176 178 175 172 174 179 172 171 183 186 189 188 193 206
135 129 136 202 147 153 213 245 255 254 231 233 241 243 246 247 250 229 211 190 176 173 175 184 178 177 170 165 165 166 176 177 178 179 177 176 176 177 176 176 177 175 180 188 185 179 194 208 172
96 104 103 45 69 101 224 263 262 247 239 232 230 235 237 246 262 243 217 193 183 180 178 183 184 180 174 173 172 167 159 170 176 173 179 180 178 177 176 175 180 179 176 182 185 175 176 200 172
75 112 134 122 37 29 23 298 266 261 251 250 238 235 234 228 234 235 216 199 188 186 183 184 186 184 178 170 153 138 122 118 158 177 186 190 180 175 171 175 177 183 182 190 192 184 183 201 210
112 206 130 113 94 360 120 280 275 244 255 250 245 241 239 234 226 221 213 200 192 194 186 179 179 181 178 169 168 168 171 180 191 186 183 182 178 175 175 175 179 185 189 193 196 193 193 189 210
157 145 93 106 109 62 178 203 275 251 243 243 240 240 242 236 222 213 207 197 191 185 179 178 172 176 176 174 177 178 179 181 170 165 171 178 179 179 178 176 178 184 189 195 192 188 197 199 205
100 69 54 50 71 277 213 191 269 230 223 237 240 237 239 233 219 213 204 183 185 178 169 163 161 175 178 177 177 178 179 171 162 171 179 181 176 175 179 178 183 189 191 195 196 195 199 207 210
67 86 61 26 21 249 208 203 254 251 241 234 240 237 232 221 201 197 195 186 185 179 175 165 160 173 180 174 179 185 181 176 178 180 184 177 177 182 188 177 181 186 190 188 186 190 201 205 209
124 122 144 167 204 264 227 228 257 267 267 248 231 220 228 230 208 192 193 192 193 187 178 171 170 175 179 178 180 181 178 175 180 180 174 180 179 175 168 160 163 172 179 184 185 191 202 197 207
122 138 166 125 36 265 261 279 304 325 342 359 18 60 36 310 280 198 185 195 194 189 185 176 171 170 174 176 169 165 168 165 165 161 159 160 151 145 140 141 146 155 165 174 170 187 196 185 201
113 134 99 109 149 264 290 283 282 319 334 352 7 6 346 19 31 40 134 176 187 180 152 133 154 163 165 161 163 158 156 153 149 142 144 140 137 131 132 131 134 135 127 121 136 165 169 174 200
143 150 139 146 169 168 249 273 266 278 309 330 341 343 5 10 354 326 312 150 141 122 129 139 148 144 140 142 137 130 130 128 125 128 133 131 126 129 132 137 133 133 130 128 133 148 148 163 177
175 189 165 164 234 196 204 274 301 319 336 357 356 350 351 356 350 332 298 200 130 143 148 156 158 154 156 142 129 127 125 122 122 123 122 122 124 126 126 122 119 124 132 138 147 155 148 163 177